Location: Guferjoch
(46.7462°N, 8.4506°E)
Time: 23:42:05
(UTC+00:00)

ATLAS 5 CENTAUR R/B - Pass Details

Date: 14 July 2020
Orbit: 275 x 14307 km, 60.7° (Epoch: 03 August)

Event Time Altitude Azimuth Distance (km) Brightness Sun altitude
Rises 02:42:50 0° 300° (WNW) 2,771 5.3 -9.2°
Reaches altitude 10° 02:44:27 10° 288° (WNW) 2,243 4.7 -9.0°
Maximum altitude 02:48:50 32° 224° (SW) 2,131 4.2 -8.5°
Drops below altitude 10° 03:01:25 10° 171° (S) 6,671 7.0 -7.0°
Sets 03:11:16 0° 165° (SSE) 10,017 7.9 -5.7°
